Location: Splawn
(30.9202°N, 96.9858°W)
Time: 21:17:34
(UTC+00:00)

Transit 2A Rocket - Pass Details

Date: 28 February 2020
Orbit: 588 x 915 km, 66.7° (Epoch: 05 April)

Event Time Altitude Azimuth Distance (km) Brightness Sun altitude
Rises 03:41:36 0° 233° (SW) 2,806 - -42.5°
Reaches altitude 10° 03:44:08 10° 247° (WSW) 1,908 - -43.1°
Maximum altitude 03:47:38 24° 302° (WNW) 1,234 - -43.8°
Drops below altitude 10° 03:51:13 10° 358° (N) 1,965 - -44.5°
Sets 03:53:53 0° 12° (NNE) 2,911 - -45.0°
